SL-16 DEB, 22337

Orbit data source: Space-Track

SL-16 DEB, 22337 is space debris in LEO originally from a launch on Fri, 25 Dec 1992 UTC launched from the Tyuratam Missile And Space Complex (TTMTR). Debris objects in space refer to the collection of defunct objects orbiting the Earth. Examples of debris include non-operational satellites, rocket bodies, and fragments generated from explosions, collisions, or faulty payload assembly.

Loading next visibility...
Identifier
22337, 1992-093AA
Orbit
LEO
Country
Flag of CISCIS
Related business
Manufacturer
Unknown
Mission
Spacecraft
Bus & Motor
Unknown
Mass
Unknown
Launch date (UTC)
1992-12-25 (33 years ago)
Launch vehicle
Unknown
Launch site
Tyuratam Missile And Space Complex (TTMTR)
Object type
Payload
Rocket body
Debris
Shape & HBR
Unknown
Radar Cross Section
Medium (>0.1 m² and <1 m²)

Expand to show TLE details & history
Last TLE update: 22 hours ago

TLE from 22 hours ago
0 SL-16 DEB
1 22337U 92093AA  25242.10582558  .00000079  00000-0  99081-4 0  9996
2 22337  71.2905 171.2536 0149336 326.5463  32.6277 13.84522878649355
Epoch: 2025-08-30T02:32Z
TLE epoch observation values (Epoch: 2025-08-30T02:32:23.33Z)
Latitude
-0.00002°
Longitude
154.61149°
Altitude
858.606 km
Speed
7.47 km/s
True Right ascension
11h 25m 00s
True Declination
0° 00' 00"
Sunlit
Object was in daylight at epoch
Visualization orbit readout
Latitude
Unknown
Longitude
Unknown
Altitude
Unknown
Speed
Unknown
Apparent Right ascension
Unknown
Apparent Declination
Unknown
Sunlit
N/A
Visualization observer readout
Local Sidereal Time
16:00:00
Azimuth
Unknown
Elevation
Unknown
Doppler factor
Unknown
Orbital elements
Apogee altitude
1,055.188 km
Perigee altitude
836.442 km
Semi-major axis
7,323.952 km
Eccentricity
0.01493
Inclination
71.2905°
RAAN
171.2536°
Arg. of periapsis
326.5463°
True anomaly
33.56506°
Mean anomaly
32.6277°
Eccentric anomaly
33.0949°
Mean motion
3.46278 °/min
Orbital period
103.96 mins
BSTAR
0.000099081
Loading maneuver chart data...
Computing Atmospheric mass density...
Loading historical data...
Loading historical data...
Loading historical data...
Loading historical data...
Loading historical data...
Loading historical data...
Loading historical data...

Documentation

Showing up to 5 results
|